[[{"header":{"parameterUnit":"m.s-1","parameterCategory":1,"la1":30.2991,"la2":30.254,"lo1":-89.0895,"lo2":-89.0444,"dy":0.0017,"dx":0.0017,"nx":28,"ny":28,"refTime":"2024-02-12T03:00:00:Z","depth":0,"parameterNumber":2,"parameterNumberName":"U-component_of_WINDS"},"data":[0,0,0,0,0,0,0,0,0,0,0,0,0,0,0,0,0,0,0,0,0,0,0,0,0,0,0,0,0,0,0,0,0,0,0,0,0,0,0,0,0,0,0,0,0,0,0,0,0,0,0,0,0,0,0,0,0,0,7.1678,7.1679,0,7.1731,7.1731,7.1732,7.166,7.1657,7.1655,7.1652,7.1712,7.1716,7.172,0,0,0,0,0,0,0,0,0,0,0,0,0,7.1524,7.1527,7.1678,7.1679,7.168,7.1731,7.1731,7.1732,7.166,7.1657,7.1654,7.1651,7.171,7.1715,7.172,0,0,0,0,0,0,0,0,0,0,0,0,0,7.1585,7.1528,7.1678,7.165,7.1648,7.173,7.1731,7.1732,7.1661,7.1657,7.1653,7.1649,7.1709,7.1715,7.1721,7.1835,0,0,7.1739,7.1742,0,0,0,0,0,0,0,0,7.1582,7.1591,7.1653,7.1652,7.165,7.1684,7.1699,7.1767,7.1662,7.1656,7.1652,7.1648,7.1706,7.1712,7.1731,7.1838,7.1841,7.174,7.1743,7.1746,7.1747,0,0,0,0,0,0,0,7.1578,7.1588,7.1699,7.1654,7.1652,7.1637,7.1641,7.1711,7.1703,7.1656,7.1651,7.1658,7.1705,7.1725,7.1732,7.1842,7.1739,7.1745,7.1748,7.1751,7.2051,7.2055,0,0,0,0,0,0,7.1576,7.1585,7.1697,7.1701,7.1605,7.1643,7.1648,7.1677,7.1701,7.1701,7.1661,7.1654,7.1717,7.1725,7.1733,7.1873,7.1746,7.1751,7.1755,7.2047,7.2052,7.2057,0,0,0,0,0,0,7.1573,7.1587,7.1695,7.1642,7.1654,7.165,7.1684,7.1681,7.1701,7.1705,7.1704,7.1683,7.1714,7.1725,7.1811,7.1874,7.1754,7.1759,7.2042,7.2048,7.2054,7.2151,0,0,0,0,0,0,7.1569,7.1586,7.1627,7.1643,7.1657,7.177,7.1687,7.1684,7.1711,7.1702,7.1726,7.1726,7.1712,7.1803,7.1817,7.188,7.1764,7.2036,7.2045,7.2052,7.2142,7.216,7.2175,0,0,0,0,0,7.1563,7.1653,7.163,7.1644,7.1709,7.1774,7.1782,7.1763,7.1716,7.1759,7.1763,7.1725,7.1864,7.1812,7.1828,7.1893,7.2032,7.2042,7.2052,7.2135,7.2156,7.2175,0,0,0,0,0,0,7.1646,7.1654,7.1629,7.1725,7.1749,7.1761,7.1815,7.1786,7.1825,7.1815,7.1791,7.1797,7.189,7.19,7.1842,7.2008,7.1941,7.1954,7.1999,7.2019,7.2035,7.2032,7.1769,0,0,0,0,0,7.1675,7.1725,7.173,7.1815,7.1828,7.182,7.1847,7.183,7.1855,7.1865,7.1875,7.1902,7.1952,7.1986,7.2032,7.2143,7.2149,7.2196,7.2212,7.2226,7.2239,7.2303,7.2325,7.2089,7.2089,7.2089,0,0,7.1736,7.1747,7.178,7.1832,7.1848,7.1904,7.1829,7.1889,7.1931,7.1875,7.1958,7.1966,7.1995,7.2095,7.214,7.2106,7.2305,7.2238,7.2249,7.2255,7.2315,7.2337,7.2357,7.2096,7.2095,7.2094,0,0,7.1877,7.1888,7.1962,7.1981,7.2006,7.2001,7.2019,7.2036,7.2039,7.2121,7.2081,7.2131,7.2217,7.2241,7.2264,7.2417,7.2385,7.2432,7.252,7.2582,7.2601,7.2617,7.2676,7.2697,7.2445,7.2445,7.2445,0,7.1951,7.203,7.2004,7.2069,7.2095,7.2045,7.2122,7.2141,7.2182,7.2202,7.2163,7.2272,7.2288,7.2395,7.2433,7.2452,7.2475,7.2431,7.26,7.2616,7.2631,7.2687,7.2708,7.2451,7.245,7.2449,7.2449,0,7.2122,7.2178,7.2235,7.2274,7.2306,7.2376,7.2365,7.2401,7.2381,7.2381,7.2468,7.2485,7.2535,7.2559,7.254,7.2665,7.2644,7.2603,7.2535,7.266,7.2712,7.2733,7.2459,7.2457,7.2455,7.2454,0,0,7.2316,7.2342,7.2364,7.2383,7.2408,7.2453,7.2522,7.257,7.2604,7.2633,7.2694,7.2769,7.2732,7.2759,7.2743,7.2797,7.2923,7.275,7.2751,7.2785,7.3066,7.3099,7.3124,7.2901,7.2905,7.2908,7.3065,0,7.246,7.2579,7.2559,7.2676,7.273,7.2684,7.2745,7.277,7.2771,7.282,7.2822,7.2877,7.2822,7.2839,7.289,7.2896,7.298,7.2884,7.2961,7.2964,7.2958,7.3151,7.3185,7.3333,7.3085,7.3088,7.3091,0,7.2643,7.268,7.2802,7.2822,7.2844,7.2899,7.2944,7.2989,7.3017,7.3015,7.3046,7.3021,7.3094,7.3023,7.3127,7.3063,7.3093,7.3101,7.3107,7.3116,7.3037,7.3169,7.3379,7.3402,7.3122,7.3119,7.3117,0,7.2779,7.2858,7.2942,7.2959,7.2984,7.3025,7.3037,7.3061,7.3092,7.3132,7.3153,7.3201,7.3228,7.3267,7.3258,7.3206,7.3365,7.3292,7.3369,7.337,7.3407,7.3405,7.3629,7.3421,7.342,7.342,7.342,0,7.2944,7.3021,7.3004,7.3056,7.3142,7.312,7.3207,7.3214,7.3237,7.3292,7.3255,7.3308,7.329,7.3344,7.3336,7.3426,7.3437,7.3441,7.3439,7.3446,7.3446,7.3468,7.3459,7.3426,7.3425,7.3423,7.3422,0,7.311,7.3101,7.3191,7.3207,7.3213,7.3276,7.3292,7.3342,7.3341,7.3412,7.3427,7.3427,7.3488,7.3482,7.355,7.3545,7.3658,7.3641,7.3648,7.3646,7.3725,7.3719,7.3972,7.4006,7.3773,7.3775,7.3777,0,7.3218,7.3276,7.3299,7.3333,7.3348,7.3402,7.3434,7.3415,7.345,7.3488,7.3536,7.3593,7.3638,7.3739,7.3746,7.38,7.3787,7.3872,7.3795,7.3802,7.3794,7.3792,7.38,7.3889,7.3891,7.3893,7.3895,0,7.3412,7.3405,7.345,7.3497,7.3535,7.3571,7.3603,7.3633,7.3618,7.366,7.3721,7.3756,7.3826,7.3886,7.3936,7.3952,7.3924,7.3919,7.394,7.3951,7.3954,7.3957,7.3694,7.3914,7.3912,7.3911,7.391,7.3909,7.3555,7.3606,7.3631,7.3685,7.3706,7.3738,7.3787,7.3792,7.3842,7.3897,7.3883,7.3954,7.3984,7.4049,7.407,7.4127,7.4097,7.4127,7.4135,7.4144,7.4155,7.3941,7.4136,7.4135,7.4135,7.4135,7.4134,0,7.375,7.3764,7.3813,7.3859,7.3903,7.3868,7.3902,7.3942,7.4004,7.4033,7.4078,7.4151,7.4209,7.4221,7.4277,7.4321,7.431,7.4337,7.4336,7.4341,7.4177,7.4155,7.4346,7.4346,7.4346,7.4346,7.4345,7.4345,7.3857,7.3944,7.394,7.4038,7.4052,7.4119,7.4143,7.4173,7.4196,7.4278,7.4325,7.4332,7.4356,7.4414,7.4467,7.4469,7.4494,7.4527,7.4525,7.4373,7.4352,7.4332,7.4311,7.4532,7.4532,7.4685,7.4686,7.4687]},{"header":{"parameterUnit":"m.s-1","parameterCategory":1,"la1":30.2991,"la2":30.254,"lo1":-89.0895,"lo2":-89.0444,"dy":0.0017,"dx":0.0017,"nx":28,"ny":28,"refTime":"2024-02-12T03:00:00:Z","depth":0,"parameterNumber":3,"parameterNumberName":"V-component_of_WINDS"},"data":[0,0,0,0,0,0,0,0,0,0,0,0,0,0,0,0,0,0,0,0,0,0,0,0,0,0,0,0,0,0,0,0,0,0,0,0,0,0,0,0,0,0,0,0,0,0,0,0,0,0,0,0,0,0,0,0,0,0,-0.7978,-0.7978,0,-0.7964,-0.7963,-0.7963,-0.7993,-0.7994,-0.7995,-0.7996,-0.7979,-0.7978,-0.7977,0,0,0,0,0,0,0,0,0,0,0,0,0,-0.8032,-0.8031,-0.7978,-0.7978,-0.7978,-0.7964,-0.7963,-0.7963,-0.7993,-0.7994,-0.7995,-0.7996,-0.798,-0.7978,-0.7977,0,0,0,0,0,0,0,0,0,0,0,0,0,-0.8012,-0.803,-0.7978,-0.7991,-0.7992,-0.7964,-0.7963,-0.7963,-0.7992,-0.7994,-0.7995,-0.7997,-0.798,-0.7978,-0.7976,-0.7935,0,0,-0.797,-0.7969,0,0,0,0,0,0,0,0,-0.8013,-0.801,-0.7989,-0.799,-0.7991,-0.7982,-0.7976,-0.7954,-0.7992,-0.7992,-0.7996,-0.7997,-0.7979,-0.7977,-0.7971,-0.7934,-0.7933,-0.797,-0.7969,-0.7968,-0.7967,0,0,0,0,0,0,0,-0.8014,-0.8011,-0.7972,-0.7989,-0.799,-0.7997,-0.7996,-0.7972,-0.7977,-0.7992,-0.7994,-0.7992,-0.798,-0.7973,-0.7971,-0.7933,-0.797,-0.7968,-0.7967,-0.7966,-0.7864,-0.7863,0,0,0,0,0,0,-0.8014,-0.8012,-0.7973,-0.7972,-0.8006,-0.7995,-0.7994,-0.7983,-0.7978,-0.7978,-0.7991,-0.7994,-0.7976,-0.7973,-0.797,-0.7923,-0.7968,-0.7966,-0.7965,-0.7866,-0.7864,-0.7862,0,0,0,0,0,0,-0.8015,-0.8011,-0.7973,-0.7992,-0.7988,-0.7993,-0.798,-0.7982,-0.7975,-0.7977,-0.7978,-0.7983,-0.7977,-0.7973,-0.7944,-0.7923,-0.7965,-0.7963,-0.7868,-0.7865,-0.7863,-0.7827,0,0,0,0,0,0,-0.8017,-0.8011,-0.7995,-0.7992,-0.7987,-0.7947,-0.7979,-0.7981,-0.7972,-0.7975,-0.797,-0.797,-0.7978,-0.7947,-0.7942,-0.7921,-0.7962,-0.787,-0.7867,-0.7864,-0.783,-0.7824,-0.7819,0,0,0,0,0,-0.8019,-0.7984,-0.7994,-0.7989,-0.7967,-0.7946,-0.7943,-0.7952,-0.797,-0.7954,-0.7956,-0.797,-0.7926,-0.7944,-0.7939,-0.7916,-0.7871,-0.7867,-0.7864,-0.7833,-0.7825,-0.7819,0,0,0,0,0,0,-0.7983,-0.7984,-0.7994,-0.7958,-0.7952,-0.7951,-0.7931,-0.7944,-0.7932,-0.7935,-0.7947,-0.7946,-0.7915,-0.7913,-0.7932,-0.7877,-0.7902,-0.7897,-0.788,-0.7872,-0.7867,-0.7868,-0.796,0,0,0,0,0,-0.7971,-0.7954,-0.7956,-0.7924,-0.792,-0.7926,-0.7917,-0.7925,-0.7919,-0.7916,-0.7915,-0.7908,-0.7893,-0.7883,-0.7868,-0.783,-0.7831,-0.7813,-0.7807,-0.7802,-0.7798,-0.778,-0.7772,-0.7851,-0.7851,-0.7851,0,0,-0.7946,-0.7945,-0.7933,-0.7916,-0.7912,-0.7895,-0.7923,-0.7903,-0.789,-0.7913,-0.7886,-0.7885,-0.7878,-0.7845,-0.783,-0.7843,-0.7777,-0.7798,-0.7794,-0.7792,-0.7776,-0.7768,-0.7761,-0.7849,-0.7849,-0.785,0,0,-0.7892,-0.7888,-0.7862,-0.7858,-0.7853,-0.7857,-0.7851,-0.7849,-0.7849,-0.7823,-0.784,-0.7825,-0.7798,-0.7793,-0.7787,-0.7734,-0.7748,-0.7729,-0.7698,-0.768,-0.7674,-0.7669,-0.7651,-0.7644,-0.7725,-0.7725,-0.7725,0,-0.7861,-0.7835,-0.7847,-0.7826,-0.7819,-0.784,-0.7815,-0.781,-0.7799,-0.7794,-0.7808,-0.7777,-0.7773,-0.774,-0.7728,-0.7722,-0.7716,-0.7729,-0.7674,-0.7669,-0.7664,-0.7647,-0.764,-0.7723,-0.7723,-0.7723,-0.7723,0,-0.7798,-0.778,-0.776,-0.7751,-0.7742,-0.7718,-0.7727,-0.7717,-0.7726,-0.773,-0.7703,-0.7701,-0.7687,-0.768,-0.7688,-0.7649,-0.7657,-0.7672,-0.7697,-0.7654,-0.7639,-0.7632,-0.772,-0.772,-0.7721,-0.7722,0,0,-0.7719,-0.7719,-0.7712,-0.7709,-0.7705,-0.7692,-0.767,-0.7658,-0.7649,-0.7642,-0.7625,-0.7603,-0.7618,-0.7611,-0.7619,-0.7603,-0.7563,-0.7621,-0.7621,-0.7611,-0.7521,-0.751,-0.7503,-0.7573,-0.7572,-0.7571,-0.7522,0,-0.7666,-0.763,-0.7641,-0.7604,-0.7589,-0.761,-0.7591,-0.7588,-0.7591,-0.7578,-0.7582,-0.7567,-0.7587,-0.7583,-0.7568,-0.7571,-0.7546,-0.7575,-0.7557,-0.7556,-0.7559,-0.7494,-0.7482,-0.7436,-0.7516,-0.7515,-0.7514,0,-0.7599,-0.7591,-0.7553,-0.7555,-0.7548,-0.7531,-0.7523,-0.751,-0.7507,-0.751,-0.7504,-0.7517,-0.7496,-0.7521,-0.7494,-0.7514,-0.7507,-0.7508,-0.7506,-0.7505,-0.7533,-0.7492,-0.7422,-0.7416,-0.7505,-0.7506,-0.7506,0,-0.7547,-0.7526,-0.7502,-0.7498,-0.7499,-0.7487,-0.7487,-0.7485,-0.7478,-0.747,-0.7466,-0.7455,-0.745,-0.7442,-0.7451,-0.7468,-0.7423,-0.7449,-0.7426,-0.7426,-0.7416,-0.7416,-0.7344,-0.741,-0.7411,-0.7411,-0.7411,0,-0.7487,-0.7463,-0.7479,-0.7463,-0.7438,-0.7452,-0.7426,-0.7428,-0.7427,-0.7413,-0.743,-0.7417,-0.743,-0.7418,-0.7425,-0.7402,-0.7399,-0.7402,-0.7405,-0.7401,-0.7401,-0.7397,-0.7401,-0.7409,-0.7409,-0.741,-0.741,0,-0.7424,-0.7433,-0.7408,-0.7412,-0.7412,-0.7393,-0.7396,-0.7383,-0.7388,-0.737,-0.7367,-0.7375,-0.7362,-0.7371,-0.7357,-0.7363,-0.7333,-0.734,-0.7335,-0.7337,-0.7314,-0.7317,-0.7238,-0.7229,-0.73,-0.7299,-0.7299,0,-0.7385,-0.7368,-0.737,-0.7363,-0.7362,-0.7349,-0.7343,-0.7356,-0.7348,-0.7345,-0.7332,-0.7321,-0.7312,-0.729,-0.7295,-0.7285,-0.7292,-0.7265,-0.7291,-0.7288,-0.7293,-0.7294,-0.7293,-0.726,-0.7259,-0.7259,-0.7258,0,-0.7316,-0.7322,-0.7312,-0.7305,-0.7297,-0.7292,-0.7287,-0.728,-0.7294,-0.7285,-0.7272,-0.7266,-0.7253,-0.7242,-0.7235,-0.7235,-0.7249,-0.725,-0.7245,-0.7241,-0.724,-0.7241,-0.7321,-0.7252,-0.7252,-0.7253,-0.7253,-0.7253,-0.7265,-0.7251,-0.7252,-0.7241,-0.724,-0.7236,-0.7224,-0.7229,-0.7219,-0.721,-0.7219,-0.7204,-0.7203,-0.7195,-0.7193,-0.7182,-0.7193,-0.7185,-0.7183,-0.7181,-0.7179,-0.7241,-0.7181,-0.7181,-0.7181,-0.7181,-0.7181,0,-0.7198,-0.72,-0.719,-0.7184,-0.7176,-0.7192,-0.7188,-0.7181,-0.7168,-0.7166,-0.7158,-0.7145,-0.7135,-0.7139,-0.7131,-0.7121,-0.7128,-0.7119,-0.712,-0.712,-0.7168,-0.7175,-0.7114,-0.7114,-0.7114,-0.7114,-0.7114,-0.7114,-0.7162,-0.7141,-0.7147,-0.7126,-0.7128,-0.7114,-0.7111,-0.7109,-0.7108,-0.7092,-0.7084,-0.7088,-0.7089,-0.7081,-0.7073,-0.7075,-0.7071,-0.706,-0.7064,-0.7109,-0.7116,-0.7123,-0.7128,-0.7059,-0.7059,-0.7017,-0.7016,-0.7016]}]]